Date,TemperatureHighF,TemperatureAvgF,TemperatureLowF,DewpointHighF,DewpointAvgF,DewpointLowF,HumidityHigh,HumidityAvg,HumidityLow,PressureMaxIn,PressureMinIn,WindSpeedMaxMPH,WindSpeedAvgMPH,GustSpeedMaxMPH,PrecipitationSumIn
2013-5-1,84,74,59,60,56,50,87,56,34,29.41,29.28,13,3,17,0.00
2013-5-2,71,61,45,61,53,43,92,77,55,29.51,29.39,12,4,16,0.35
2013-5-3,45,42,40,43,40,38,95,93,91,29.44,29.19,10,5,15,1.85
2013-5-4,51,44,39,44,40,38,95,86,68,29.37,29.20,8,2,9,0.00
2013-5-5,61,53,45,57,51,43,97,92,83,29.37,29.25,12,2,12,0.14
2013-5-6,68,61,53,57,54,51,95,79,59,29.34,29.27,15,3,18,0.00
2013-5-7,80,67,57,59,55,50,93,70,38,29.38,29.32,9,2,10,0.00
2013-5-8,83,68,51,59,53,46,96,64,28,29.39,29.30,8,2,15,0.00
2013-5-9,77,69,63,65,60,58,89,73,53,29.32,29.18,19,3,23,0.17
2013-5-10,66,62,55,61,57,50,93,83,73,29.35,29.18,8,3,19,0.00
2013-5-11,71,60,51,53,44,32,92,61,30,29.51,29.33,18,5,26,0.00
2013-5-12,64,53,38,37,30,23,83,46,26,29.59,29.50,12,3,17,0.00
2013-5-13,76,59,38,45,37,29,90,50,23,29.59,29.38,8,2,16,0.00
2013-5-14,95,77,58,55,51,45,74,43,22,29.37,29.13,16,6,22,0.00
2013-5-15,92,81,71,64,57,50,66,45,31,29.27,29.14,15,6,24,0.00
2013-5-16,83,75,66,67,62,57,83,67,43,29.28,29.18,14,4,18,0.00
2013-5-17,78,70,66,68,63,59,91,78,64,29.30,29.24,8,2,10,0.08
2013-5-18,84,73,64,66,65,63,95,75,53,29.35,29.20,12,3,12,0.00
2013-5-19,91,80,70,73,68,63,86,68,48,29.24,29.02,16,6,21,0.00
2013-5-20,82,73,62,71,66,60,97,80,60,29.22,29.02,16,5,49,1.05
2013-5-21,82,71,63,66,63,61,97,78,55,29.14,29.03,14,4,19,0.03
2013-5-22,77,69,63,62,58,54,92,69,45,29.21,29.00,17,7,24,0.00
2013-5-23,65,62,56,60,54,50,91,76,65,29.57,29.21,12,5,19,0.11
2013-5-24,71,59,48,51,42,35,89,56,30,29.75,29.57,9,3,13,0.00
2013-5-25,69,62,50,56,50,43,85,66,46,29.70,29.47,12,3,15,0.09
2013-5-26,85,71,58,69,59,50,78,66,53,29.53,29.32,10,4,17,0.03
2013-5-27,84,73,65,70,64,61,93,76,60,29.36,29.09,14,5,24,0.42
2013-5-28,85,76,70,71,67,63,91,75,56,29.22,29.13,11,4,25,0.06
2013-5-29,88,80,69,68,65,62,83,62,45,29.28,29.14,16,5,24,0.00
2013-5-30,84,76,65,72,68,63,93,74,62,29.24,29.12,16,5,26,0.47
2013-5-31,81,71,64,73,67,63,98,86,73,29.20,29.06,19,5,27,1.89